TimeCDT,TemperatureF,Dew PointF,Humidity,Sea Level PressureIn,VisibilityMPH,Wind Direction,Wind SpeedMPH,Gust SpeedMPH,PrecipitationIn,Events,Conditions,WindDirDegrees,DateUTC
12:15 AM,61.7,49.1,63,30.01,10.0,Calm,Calm,-,N/A,,Clear,0,2013-05-06 05:15:00
12:35 AM,62.1,48.6,61,30.00,10.0,Calm,Calm,-,N/A,,Clear,0,2013-05-06 05:35:00
12:55 AM,61.7,48.7,62,30.00,10.0,Calm,Calm,-,N/A,,Clear,0,2013-05-06 05:55:00
1:35 AM,59.2,49.1,69,30.01,10.0,WNW,3.5,-,N/A,,Clear,300,2013-05-06 06:35:00
1:55 AM,60.6,48.9,65,30.01,10.0,Calm,Calm,-,N/A,,Clear,0,2013-05-06 06:55:00
2:15 AM,58.5,49.3,72,30.01,10.0,North,3.5,-,N/A,,Clear,360,2013-05-06 07:15:00
2:35 AM,58.3,50.0,74,30.02,10.0,North,3.5,-,N/A,,Scattered Clouds,350,2013-05-06 07:35:00
2:55 AM,59.7,49.1,68,30.02,10.0,Calm,Calm,-,N/A,,Mostly Cloudy,0,2013-05-06 07:55:00
3:15 AM,58.8,49.3,71,30.02,10.0,North,3.5,-,N/A,,Mostly Cloudy,350,2013-05-06 08:15:00
3:35 AM,58.1,49.1,72,30.02,10.0,NNW,4.6,-,N/A,,Scattered Clouds,340,2013-05-06 08:35:00
3:55 AM,58.6,49.3,71,30.02,10.0,North,3.5,-,N/A,,Clear,10,2013-05-06 08:55:00
4:15 AM,57.6,49.3,74,30.02,10.0,North,3.5,-,N/A,,Clear,350,2013-05-06 09:15:00
4:35 AM,57.0,48.9,74,30.02,10.0,North,4.6,-,N/A,,Clear,350,2013-05-06 09:35:00
4:55 AM,55.8,48.7,77,30.02,10.0,WNW,5.8,-,N/A,,Clear,300,2013-05-06 09:55:00
5:15 AM,55.8,48.0,75,30.02,10.0,NNW,5.8,-,N/A,,Clear,330,2013-05-06 10:15:00
5:35 AM,54.7,47.8,78,30.02,10.0,NNW,5.8,-,N/A,,Clear,340,2013-05-06 10:35:00
5:55 AM,55.4,48.4,77,30.03,10.0,NNW,5.8,-,N/A,,Clear,340,2013-05-06 10:55:00
6:15 AM,54.9,47.8,77,30.02,10.0,NNW,6.9,-,N/A,,Clear,340,2013-05-06 11:15:00
6:35 AM,55.4,48.4,77,30.03,10.0,NNW,6.9,-,N/A,,Clear,340,2013-05-06 11:35:00
6:55 AM,56.5,48.9,76,30.03,10.0,North,6.9,-,N/A,,Scattered Clouds,350,2013-05-06 11:55:00
7:15 AM,58.1,50.0,74,30.05,10.0,NNE,3.5,-,N/A,,Mostly Cloudy,30,2013-05-06 12:15:00
7:35 AM,59.0,51.1,75,30.04,10.0,NNW,6.9,-,N/A,,Overcast,340,2013-05-06 12:35:00
7:55 AM,59.9,50.7,72,30.06,10.0,North,5.8,-,N/A,,Scattered Clouds,10,2013-05-06 12:55:00
8:15 AM,59.7,51.3,74,30.06,10.0,North,5.8,-,N/A,,Scattered Clouds,350,2013-05-06 13:15:00
8:35 AM,62.1,52.7,71,30.06,10.0,North,6.9,-,N/A,,Mostly Cloudy,350,2013-05-06 13:35:00
8:55 AM,63.1,52.9,69,30.07,10.0,North,5.8,-,N/A,,Overcast,360,2013-05-06 13:55:00
9:15 AM,63.9,52.2,66,30.07,10.0,North,4.6,-,N/A,,Overcast,360,2013-05-06 14:15:00
9:35 AM,65.3,52.2,62,30.07,10.0,North,6.9,-,N/A,,Overcast,350,2013-05-06 14:35:00
9:55 AM,66.4,53.1,62,30.07,10.0,North,5.8,-,N/A,,Scattered Clouds,360,2013-05-06 14:55:00
10:15 AM,68.9,52.3,55,30.07,10.0,North,8.1,-,N/A,,Clear,360,2013-05-06 15:15:00
10:35 AM,70.3,52.2,52,30.07,10.0,North,6.9,-,N/A,,Clear,10,2013-05-06 15:35:00
10:55 AM,71.8,50.4,47,30.06,10.0,North,5.8,-,N/A,,Clear,350,2013-05-06 15:55:00
11:15 AM,73.0,46.9,39,30.06,10.0,North,8.1,-,N/A,,Clear,360,2013-05-06 16:15:00
11:35 AM,74.5,48.4,40,30.05,10.0,NNE,10.4,-,N/A,,Clear,20,2013-05-06 16:35:00
11:55 AM,75.0,46.0,36,30.04,10.0,NNE,10.4,-,N/A,,Clear,20,2013-05-06 16:55:00
12:15 PM,75.6,44.6,33,30.04,10.0,NE,9.2,-,N/A,,Clear,40,2013-05-06 17:15:00
12:35 PM,76.5,45.3,33,30.03,10.0,North,10.4,-,N/A,,Clear,10,2013-05-06 17:35:00
12:55 PM,75.0,45.7,35,30.03,10.0,NNE,8.1,-,N/A,,Scattered Clouds,30,2013-05-06 17:55:00
1:15 PM,75.7,44.1,32,30.02,10.0,NE,8.1,-,N/A,,Scattered Clouds,50,2013-05-06 18:15:00
1:35 PM,77.0,41.7,28,30.02,10.0,North,11.5,-,N/A,,Scattered Clouds,10,2013-05-06 18:35:00
1:55 PM,77.4,43.0,29,30.02,10.0,North,9.2,-,N/A,,Scattered Clouds,10,2013-05-06 18:55:00
2:15 PM,78.6,40.1,25,30.01,10.0,NNE,4.6,-,N/A,,Scattered Clouds,30,2013-05-06 19:15:00
2:35 PM,78.1,36.5,22,30.01,10.0,NE,6.9,-,N/A,,Scattered Clouds,50,2013-05-06 19:35:00
2:55 PM,77.0,40.3,27,30.01,10.0,North,9.2,-,N/A,,Mostly Cloudy,10,2013-05-06 19:55:00
3:15 PM,76.6,37.9,25,30.00,10.0,Calm,Calm,-,N/A,,Mostly Cloudy,0,2013-05-06 20:15:00
3:35 PM,77.0,41.9,28,30.00,10.0,NNE,6.9,-,N/A,,Overcast,20,2013-05-06 20:35:00
3:55 PM,77.0,38.5,25,30.00,10.0,North,4.6,-,N/A,,Overcast,360,2013-05-06 20:55:00
4:15 PM,77.0,39.4,26,29.99,10.0,North,6.9,-,N/A,,Overcast,360,2013-05-06 21:15:00
4:35 PM,77.0,39.4,26,29.99,10.0,North,4.6,-,N/A,,Overcast,350,2013-05-06 21:35:00
4:55 PM,76.1,42.1,30,29.99,10.0,North,8.1,-,N/A,,Overcast,350,2013-05-06 21:55:00
5:15 PM,75.4,45.5,34,29.99,10.0,North,6.9,-,N/A,,Overcast,10,2013-05-06 22:15:00
5:55 PM,74.8,46.9,37,29.99,10.0,North,5.8,-,N/A,,Overcast,360,2013-05-06 22:55:00
6:15 PM,74.5,48.9,40,29.99,10.0,North,4.6,-,N/A,,Overcast,350,2013-05-06 23:15:00
6:35 PM,74.3,50.4,43,29.99,10.0,North,4.6,-,N/A,,Overcast,350,2013-05-06 23:35:00
6:55 PM,75.2,49.6,41,29.99,10.0,North,4.6,-,N/A,,Overcast,350,2013-05-06 23:55:00
7:15 PM,74.3,48.6,40,29.99,10.0,North,4.6,-,N/A,,Overcast,360,2013-05-07 00:15:00
7:35 PM,72.1,50.0,46,30.00,10.0,NNW,4.6,-,N/A,,Mostly Cloudy,340,2013-05-07 00:35:00
7:55 PM,71.8,48.2,43,30.00,10.0,NNW,4.6,-,N/A,,Scattered Clouds,340,2013-05-07 00:55:00
8:15 PM,71.1,47.1,42,30.00,10.0,NNW,4.6,-,N/A,,Clear,340,2013-05-07 01:15:00
8:35 PM,70.7,46.8,42,30.00,10.0,NW,3.5,-,N/A,,Clear,320,2013-05-07 01:35:00
8:55 PM,69.8,46.6,43,30.00,10.0,NNW,4.6,-,N/A,,Clear,330,2013-05-07 01:55:00
9:15 PM,69.1,46.0,44,30.01,10.0,NW,4.6,-,N/A,,Scattered Clouds,320,2013-05-07 02:15:00
9:35 PM,68.5,45.0,43,30.02,10.0,NW,4.6,-,N/A,,Scattered Clouds,320,2013-05-07 02:35:00
9:55 PM,68.4,43.7,41,30.02,10.0,NW,4.6,-,N/A,,Clear,320,2013-05-07 02:55:00
10:15 PM,67.5,44.6,44,30.02,10.0,NNW,5.8,-,N/A,,Clear,340,2013-05-07 03:15:00
10:35 PM,67.1,44.8,45,30.02,10.0,NNW,5.8,-,N/A,,Clear,340,2013-05-07 03:35:00
10:55 PM,64.4,46.6,52,30.02,10.0,North,4.6,-,N/A,,Clear,350,2013-05-07 03:55:00
11:15 PM,66.2,45.7,48,30.02,10.0,NNW,5.8,-,N/A,,Clear,330,2013-05-07 04:15:00
11:35 PM,64.6,46.9,53,30.02,10.0,North,4.6,-,N/A,,Clear,350,2013-05-07 04:35:00
11:55 PM,66.0,46.8,50,30.02,10.0,North,4.6,-,N/A,,Clear,350,2013-05-07 04:55:00